CZ-6A DEB, 54391

Orbit data source: Space-Track

CZ-6A DEB, 54391 is space debris in SSO originally from a launch on Fri, 11 Nov 2022 UTC launched from the Taiyaun Space Center, China (TSC). Debris objects in space refer to the collection of defunct objects orbiting the Earth. Examples of debris include non-operational satellites, rocket bodies, and fragments generated from explosions, collisions, or faulty payload assembly.

Loading next visibility...
Identifier
54391, 2022-151DP
Orbit
SSO
Country
Flag of CNCN / PRC
Related business
Manufacturer
SAST
Mission
Spacecraft
Bus & Motor
Unknown
Mass
Unknown
Launch date (UTC)
2022-11-11 (4 years ago)
Launch vehicle
Unknown
Launch site
Taiyaun Space Center, China (TSC)
Object type
Payload
Rocket body
Debris
Shape & HBR
Unknown shape, 0.1 m
Radar Cross Section
Medium (>0.1 m² and <1 m²)

Expand to show TLE details & history
Last TLE update: 9 hours ago

TLE from 9 hours ago
0 CZ-6A DEB
1 54391U 22151DP  26220.05224405  .00001259  00000-0  26418-3 0  9998
2 54391  98.4614 260.9905 0134725 100.8641 260.7750 14.55944685197622
Epoch: 2026-08-08T01:15Z
TLE epoch observation values (Epoch: 2026-08-08T01:15:13.885Z)
Latitude
-0.00011°
Longitude
-74.38647°
Altitude
725.824 km
Speed
7.484 km/s
True Right ascension
17h 23m 57s
True Declination
0° 00' 00"
Sunlit
Object was in full shadow at epoch
Visualization orbit readout
Latitude
Unknown
Longitude
Unknown
Altitude
Unknown
Speed
Unknown
Apparent Right ascension
Unknown
Apparent Declination
Unknown
Sunlit
N/A
Visualization observer readout
Local Sidereal Time
00:32:39
Azimuth
Unknown
Elevation
Unknown
Doppler factor
Unknown
Orbital elements
Apogee altitude
798.803 km
Perigee altitude
607.991 km
Semi-major axis
7,081.534 km
Eccentricity
0.01347
Inclination
98.4614°
RAAN
260.9905°
Arg. of periapsis
100.8641°
True anomaly
259.25541°
Mean anomaly
260.775°
Eccentric anomaly
260.01478°
Mean motion
3.6421 °/min
Orbital period
98.84 mins
BSTAR
0.00026418
Loading maneuver chart data...
Computing Atmospheric mass density...
Loading historical data...
Loading historical data...
Loading historical data...
Loading historical data...
Loading historical data...
Loading historical data...
Loading historical data...

Documentation

Showing up to 5 results
|